Location: St Paul
(33.9360°N, 83.4200°W)
Time: 19:42:05
(UTC-05:00)

Cosmos 2154 Rocket - Pass Details

Date: 06 October 2017
Orbit: 965 x 997 km, 82.9° (Epoch: 15 December)

Event Time Altitude Azimuth Distance (km) Brightness Sun altitude
Rises 19:44:51 0° 185° (S) 3,653 7.1 -7.9°
Reaches altitude 10° 19:47:20 10° 185° (S) 2,714 6.4 -8.4°
Maximum altitude 19:53:34 89° 270° (W) 987 4.1 -9.7°
Drops below altitude 10° 19:59:54 10° 6° (N) 2,752 6.3 -11.0°
Sets 20:02:26 0° 6° (N) 3,708 7.0 -11.5°
